Orange, MA

1:27 PM EDT on August 30, 2016 (GMT -0400)
Orange Municipal

Weather History for KORE - October, 2012

Change the Weather History Date:

Thursday, October 25, 2012

  Actual Average Record
Temperature  
Mean Temperature 46 °F -  
Max Temperature 57 °F 53 °F 73 °F (2001)
Min Temperature 36 °F 31 °F 21 °F (2002)
Degree Days  
Heating Degree Days 18    
Moisture  
Dew Point 40 °F    
Average Humidity 77    
Maximum Humidity 97    
Minimum Humidity 51    
Precipitation  
Precipitation 0.00 in - - ()
Sea Level Pressure  
Sea Level Pressure 30.27 in    
Wind  
Wind Speed 1 mph (South)    
Max Wind Speed 6 mph    
Max Gust Speed -    
Visibility 10 miles    
Events      
Averages and records for this station are not official NWS values.
T = Trace of Precipitation, MM = Missing Value Source: NWS Daily Summary

Daily Weather History Graph

Daily Weather History Graph

Search for Another Location

Airport or City:

Trip Planner

Search our weather history database for the weather conditions in past years. The results will help you decide how hot, cold, wet, or windy it might be!

Date:

Astronomy

Oct. 25, 2012 Rise Set
Actual Time 7:14 AM EDT 5:50 PM EDT
Civil Twilight 6:45 AM EDT 6:19 PM EDT
Nautical Twilight 6:12 AM EDT 6:52 PM EDT
Astronomical Twilight 5:40 AM EDT 7:25 PM EDT
Moon 3:39 PM EDT (10/25) 3:03 AM EDT (10/25)
Length of Visible Light 11h 34m
Length of Day
10h 36m
Waxing Gibbous, 84% of the Moon is Illuminated
Oct 25
Waxing Gibbous
Oct 29
Full
Nov 6
Last Quarter
Nov 13
New
Nov 20
First Quarter

Hourly Weather History & Observations

Time (EDT) Temp. Dew Point Humidity Pressure Visibility Wind Dir Wind Speed Gust Speed Precip Events Conditions
12:52 AM 39.9 °F 39.0 °F 97% 30.24 in 10.0 mi Calm Calm - N/A   Clear
1:52 AM 39.0 °F 37.0 °F 93% 30.25 in 10.0 mi Calm Calm - N/A   Clear
2:52 AM 37.0 °F 36.0 °F 96% 30.26 in 9.0 mi Calm Calm - N/A   Clear
3:52 AM 36.0 °F 35.1 °F 97% 30.26 in 10.0 mi Calm Calm - N/A   Scattered Clouds
4:52 AM 36.0 °F 35.1 °F 97% 30.25 in 10.0 mi Calm Calm - N/A   Mostly Cloudy
5:52 AM 39.0 °F 37.0 °F 93% 30.26 in 10.0 mi Calm Calm - N/A   Overcast
6:52 AM 39.0 °F 37.0 °F 93% 30.27 in 10.0 mi Calm Calm - N/A   Partly Cloudy
9:52 AM 48.0 °F 39.9 °F 74% 30.31 in 10.0 mi Calm Calm - N/A   Overcast
10:52 AM 52.0 °F 39.0 °F 61% 30.30 in 10.0 mi Calm Calm - N/A   Overcast
11:52 AM 55.0 °F 39.0 °F 55% 30.30 in 10.0 mi South 4.6 mph - N/A   Overcast
12:06 PM 55.4 °F 39.2 °F 54% 30.29 in 10.0 mi SE 3.5 mph - N/A   Overcast
12:52 PM 55.9 °F 39.9 °F 55% 30.29 in 10.0 mi SSE 3.5 mph - N/A   Overcast
1:52 PM 55.9 °F 41.0 °F 57% 30.28 in 10.0 mi Calm Calm - N/A   Overcast
2:45 PM 57.2 °F 39.2 °F 51% 30.25 in 10.0 mi South 4.6 mph - N/A   Overcast
2:52 PM 57.0 °F 39.0 °F 51% 30.27 in 10.0 mi South 5.8 mph - N/A   Overcast
3:47 PM 57.2 °F 39.2 °F 51% 30.25 in 10.0 mi South 3.5 mph - N/A   Overcast
4:52 PM 57.9 °F 42.1 °F 56% 30.27 in 10.0 mi Calm Calm - N/A   Overcast
5:52 PM 57.0 °F 45.0 °F 64% 30.27 in 10.0 mi Calm Calm - N/A   Overcast
6:52 PM 52.0 °F 46.9 °F 83% 30.28 in 10.0 mi Calm Calm - N/A   Mostly Cloudy
7:52 PM 48.9 °F 46.0 °F 90% 30.28 in 10.0 mi Calm Calm - N/A   Overcast
8:52 PM 46.0 °F 44.1 °F 93% 30.27 in 10.0 mi Calm Calm - N/A   Clear
9:52 PM 45.0 °F 43.0 °F 93% 30.27 in 10.0 mi Calm Calm - N/A   Mostly Cloudy
10:01 PM 44.6 °F 42.8 °F 93% 30.26 in 10.0 mi Calm Calm - N/A   Mostly Cloudy
10:52 PM 44.1 °F 42.1 °F 93% 30.27 in 10.0 mi Calm Calm - N/A   Overcast
11:52 PM 44.1 °F 42.1 °F 93% 30.27 in 10.0 mi Calm Calm - N/A   Overcast